Location: Wien
(48.2082°N, 16.3738°E)
Time: 02:49:17
(UTC+01:00)

OTV 5 (USA 277) - Visible Passes

Search period start: 26 March 2019 00:00
Search period end: 05 April 2019 01:00
Orbit: 315 x 320 km, 54.5° (Epoch: 14 March)

Date Brightness Start Highest point End Pass type
(mag) Time Alt. Az. Time Alt. Az. Time Alt. Az.
01 Apr ? 05:53:12 10° S 05:55:14 19° SE 05:57:18 10° E visible
03 Apr ? 04:49:21 11° SSE 04:50:28 13° SE 04:51:49 10° ESE visible
04 Apr ? 05:03:41 19° S 05:04:56 29° SE 05:07:22 10° ENE visible
